Location: Meadowbank Aerodrome
(65.0250°N, 96.0705°W)
Time: 07:30:14
(UTC-05:00)

Cosmos 2221 - Visible Passes

Search period start: 25 April 2015 00:00
Search period end: 05 May 2015 00:00
Orbit: 595 x 621 km, 82.5° (Epoch: 24 April)

Date Brightness Start Highest point End Pass type
(mag) Time Alt. Az. Time Alt. Az. Time Alt. Az.
25 Apr 5.1 01:11:57 10° N 01:15:02 19° NE 01:18:10 10° E visible
25 Apr 3.1 02:49:20 10° NNW 02:53:36 59° ENE 02:57:51 10° SSE visible
25 Apr 5.6 23:49:06 10° NNE 23:49:51 10° NNE 23:50:40 10° NE visible
26 Apr 4.7 01:25:40 10° N 01:29:09 23° NE 01:32:39 10° ESE visible
26 Apr 2.6 03:03:09 10° NNW 03:07:28 81° ENE 03:11:48 10° SSE visible
27 Apr 5.4 00:02:24 10° N 00:04:06 12° NNE 00:05:51 10° NE visible
27 Apr 4.3 01:39:25 10° N 01:43:12 29° NE 01:47:01 10° ESE visible
27 Apr 2.5 03:16:59 10° NNW 03:21:18 75° WSW 03:25:36 10° S visible
28 Apr 5.2 00:15:59 10° N 00:18:18 14° NE 00:20:42 10° ENE visible
28 Apr 3.9 01:53:10 10° N 01:57:13 38° ENE 02:01:16 10° SE visible
28 Apr 2.7 03:30:51 10° NNW 03:35:04 54° W 03:39:16 10° S visible
29 Apr 5.1 00:29:38 10° N 00:32:28 17° NE 00:35:23 10° E visible
29 Apr 3.3 02:06:57 10° NNW 02:11:10 50° ENE 02:15:23 10° SE visible
29 Apr 3.2 03:44:45 10° NNW 03:48:47 39° W 03:52:48 10° SSW visible
30 Apr 4.8 00:43:19 10° N 00:46:35 21° NE 00:49:55 10° E visible
30 Apr 2.8 02:20:44 10° NNW 02:25:03 68° ENE 02:29:22 10° SSE visible
30 Apr 5.4 23:20:10 10° N 23:21:27 11° NNE 23:22:48 10° NE visible
01 May 4.5 00:57:01 10° N 01:00:40 26° NE 01:04:20 10° ESE visible
01 May 2.5 02:34:32 10° NNW 02:38:53 88° WSW 02:43:14 10° SSE visible
01 May 5.2 23:33:39 10° N 23:35:40 13° NNE 23:37:46 10° ENE visible
02 May 4.0 01:10:45 10° N 01:14:41 33° NE 01:18:38 10° ESE visible
02 May 2.6 02:48:22 10° NNW 02:52:40 65° W 02:56:57 10° S visible
02 May 5.1 23:47:14 10° N 23:49:50 16° NE 23:52:30 10° ENE visible
03 May 3.6 01:24:30 10° NNW 01:28:38 43° ENE 01:32:48 10° SE visible
03 May 3.0 03:02:14 10° NNW 03:06:23 46° W 03:10:32 10° S visible
04 May 4.9 00:00:53 10° N 00:03:58 19° NE 00:07:05 10° E visible
04 May 3.1 01:38:15 10° NNW 01:42:32 58° ENE 01:46:49 10° SSE visible
04 May 3.4 03:16:08 10° NNW 03:20:04 34° W 03:23:58 10° SSW visible
